Volver al catálogo

COSMOS 2251 DEB

ActivoLEO
NORAD 34998·DEBRIS·🇷🇺 Russia

Lanzado Jun 16, 1993 desde Plesetsk Cosmodrome

Loading…

Próximos Pases (próximas 24 horas)

TLE

ActualizadoSource: Space-Track

Época: Sep 13, 2026, 06:46 UTC

1 34998U 93036AFW 26256.28257810  .00001110  00000-0  29155-3 0  9996
2 34998  74.0120   3.7587 0019550  81.7811 307.6895 14.50238394913993

Sigue COSMOS 2251 DEB en tiempo real con AllMySat

Download on the App Store